Overview Statistics Trail Chart Weather Telemetry Raw packets
 

This is the latest recevied packets stored in our database for station/object TA3F-1. If no packets are shown the sender has not sent any packets the latest 24 hours.

If you compare the raw packets with similar data from other websites it may differ (especially the path), the reason is that we are not collecting packets from the same APRS-IS servers. Each APRS-IS server performes duplicate filtering, and which packet that is considered to be a duplicate may differ depending on which APRS-IS server you receive your data from.

<< 1 2 3 4 >>

1788673017: TA3F-1>APLIGP,qAO,YM1KTC-14:>LoRa Digi on 433.775MHz Temp: 21.59C, Humid:31.71%, Batt: 4.01V, Solar: 5.37V DigiPcktC:0

1788671811: TA3F-1>APLIGP,qAO,YM1KTC-15:>LoRa Digi on 433.775MHz Temp: 21.18C, Humid:29.83%, Batt: 4.01V, Solar: 5.36V DigiPcktC:0

1788671321: TA3F-1>APLIGP,qAO,YM1KTC-14:!3834.04NL02727.31E# LightGateway Plus LoRa APRS Digi by TA2MUN & TA3YNS & TA3F

1788670605: TA3F-1>APLIGP,qAO,YM1KTC-14:>LoRa Digi on 433.775MHz Temp: 20.73C, Humid:31.11%, Batt: 4.01V, Solar: 5.37V DigiPcktC:0

1788669400: TA3F-1>APLIGP,qAO,YM1KTC-14:>LoRa Digi on 433.775MHz Temp: 20.18C, Humid:34.29%, Batt: 4.01V, Solar: 5.37V DigiPcktC:0

1788668917: TA3F-1>APLIGP,qAR,TCSAR-11:!3834.04NL02727.31E# LightGateway Plus LoRa APRS Digi by TA2MUN & TA3YNS & TA3F

1788668194: TA3F-1>APLIGP,qAO,YM1KTC-14:>LoRa Digi on 433.775MHz Temp: 19.40C, Humid:36.54%, Batt: 4.01V, Solar: 5.36V DigiPcktC:0

1788666988: TA3F-1>APLIGP,qAO,YM1KTC-14:>LoRa Digi on 433.775MHz Temp: 18.88C, Humid:36.38%, Batt: 4.01V, Solar: 5.36V DigiPcktC:0

1788666512: TA3F-1>APLIGP,qAO,YM1KTC-14:!3834.04NL02727.31E# LightGateway Plus LoRa APRS Digi by TA2MUN & TA3YNS & TA3F

1788665783: TA3F-1>APLIGP,qAR,TCSAR-11:>LoRa Digi on 433.775MHz Temp: 18.66C, Humid:35.50%, Batt: 4.01V, Solar: 4.32V DigiPcktC:0

1788664577: TA3F-1>APLIGP,qAO,YM1KTC-14:>LoRa Digi on 433.775MHz Temp: 18.91C, Humid:35.68%, Batt: 4.01V, Solar: 0.00V DigiPcktC:0

1788664108: TA3F-1>APLIGP,qAO,YM1KTC-14:!3834.04NL02727.31E# LightGateway Plus LoRa APRS Digi by TA2MUN & TA3YNS & TA3F

1788663371: TA3F-1>APLIGP,qAO,YM1KTC-14:>LoRa Digi on 433.775MHz Temp: 19.01C, Humid:28.89%, Batt: 4.01V, Solar: 0.00V DigiPcktC:0

1788662166: TA3F-1>APLIGP,qAR,TCSAR-11:>LoRa Digi on 433.775MHz Temp: 18.92C, Humid:31.90%, Batt: 4.01V, Solar: 0.00V DigiPcktC:0

1788661703: TA3F-1>APLIGP,qAO,YM1KTC-14:!3834.04NL02727.31E# LightGateway Plus LoRa APRS Digi by TA2MUN & TA3YNS & TA3F

1788660960: TA3F-1>APLIGP,qAR,TCSAR-11:>LoRa Digi on 433.775MHz Temp: 18.69C, Humid:35.98%, Batt: 4.01V, Solar: 0.00V DigiPcktC:0

1788659755: TA3F-1>APLIGP,qAO,YM1KTC-14:>LoRa Digi on 433.775MHz Temp: 18.71C, Humid:42.38%, Batt: 4.01V, Solar: 0.00V DigiPcktC:0

1788659299: TA3F-1>APLIGP,qAO,YM1KTC-14:!3834.04NL02727.31E# LightGateway Plus LoRa APRS Digi by TA2MUN & TA3YNS & TA3F

1788658549: TA3F-1>APLIGP,qAO,YM1KTC-15:>LoRa Digi on 433.775MHz Temp: 18.78C, Humid:46.47%, Batt: 4.01V, Solar: 0.00V DigiPcktC:0

1788657343: TA3F-1>APLIGP,qAO,YM1KTC-14:>LoRa Digi on 433.775MHz Temp: 19.42C, Humid:45.32%, Batt: 4.01V, Solar: 0.00V DigiPcktC:0

1788656894: TA3F-1>APLIGP,qAO,YM1KTC-14:!3834.04NL02727.31E# LightGateway Plus LoRa APRS Digi by TA2MUN & TA3YNS & TA3F

1788656138: TA3F-1>APLIGP,qAO,YM1KTC-14:>LoRa Digi on 433.775MHz Temp: 19.32C, Humid:36.98%, Batt: 4.01V, Solar: 0.00V DigiPcktC:0

1788654932: TA3F-1>APLIGP,qAO,YM1KTC-14:>LoRa Digi on 433.775MHz Temp: 19.49C, Humid:45.00%, Batt: 4.02V, Solar: 0.00V DigiPcktC:0

1788654490: TA3F-1>APLIGP,qAR,TCSAR-11:!3834.04NL02727.31E# LightGateway Plus LoRa APRS Digi by TA2MUN & TA3YNS & TA3F

1788653726: TA3F-1>APLIGP,qAO,YM1KTC-14:>LoRa Digi on 433.775MHz Temp: 19.76C, Humid:38.49%, Batt: 4.02V, Solar: 0.00V DigiPcktC:0